SCP
0 0 0 0 0 0 0 0 0 0 0 0 0 0 0 0 0 0 0 0 0 0 0 0 0 0 0 0 0 0 0 0 0 0 0 0 0 0 0 0 0 0 0 0
0 0 0 0 0 0 0 0 0 0 0 0 0 0 0 0 0 0 0 0 0 0 0 0 0 0 0 0 0 0 0 0 0 0 0 0 0 0 0 0 0 0 0 0
0 0 0 0 0 0 0 0 0 0 0 0 0 0 0 0 0 0 0 0 0 0 0 0 0 0 0 0 0 0 0 0 0 0 0 0 0 0 0 0 0 0 0 0
0 0 0 0 0 0 0 0 0 0 0 0 0 0 0 0 0 0 0 0 0 0 0 0 0 0 0 0 0 0 0 0 0 0 0 0 0 0 0 0 0 0 0 0
0 0 0 0 0 0 0 0 0 0 0 0 0 0 0 0 0 0 0 0 0 0 0 0 0 0 0 0 0 0 0 0 0 0 0 0 0 0 0 0 0 0 0 0
0 0 0 0 0 0 0 0 0 0 0 0 0 0 0 0 0 0 0 0 0 0 0 0 0 0 0 0 0 0 0 0 0 0 0 0 0 0 0 0 0 0 0 0
0 0 0 0 0 0 0 0 0 0 0 0 0 0 0 0 0 0 0 0 0 0 0 0 0 0 0 0 0 0 0 0 0 0 0 0 0 0 0 0 0 0 0 -0
0 0 0 0 0 0 0 0 0 0 0 0 0 0 0 0 0 0 0 0 0 0 0 0 0 0 0 0 0 0 0 0 0 0 0 0 0 -0 -0 0 0 0 0 -0
0 0 0 0 0 0 0 0 0 0 0 0 0 0 0 0 0 0 0 0 0 0 0 0 0 0 0 0 0 0 0 0 0 0 0 0 0 -0 -0 0 0 -0 -0 -0
0 0 0 0 0 0 0 0 0 0 0 0 0 0 0 0 0 0 0 0 0 0 0 0 0 0 0 0 0 0 0 0 0 0 0 0 0 0 0 0 0 0 0 0
0 0 0 0 0 0 0 0 0 0 0 0 0 0 0 0 0 0 0 0 0 0 0 0 0 0 0 0 0 0 0 0 0 0 0 0 0 0 0 0 0 0 0 0
0 0 0 0 0 0 0 0 0 0 0 0 0 0 0 0 0 0 0 0 0 0 0 0 0 0 0 0 0 0 0 0 0 0 0 0 0 0 0 0 0 0 0 0
0 0 -0 0 0 0 0 0 0 0 0 0 0 0 0 0 0 0 0 0 0 0 0 0 0 0 0 0 0 0 0 0 0 0 0 0 0 0 0 0 0 0 0 0
0 0 0 0 0 0 0 0 0 0 0 0 0 0 0 0 0 0 0 0 0 0 0 0 0 0 0 0 0 0 0 0 0 0 0 0 0 0 0 0 0 0 0 0
0 0 0 0 0 0 0 0 0 0 0 0 0 0 0 0 0 0 0 0 0 0 0 0 0 0 0 0 0 0 0 0 0 0 0 0 0 0 0 -0 0 0 0 0
0 0 0 0 0 0 0 0 0 0 0 0 0 0 0 0 0 0 0 0 0 0 0 0 0 0 0 0 0 0 0 0 0 0 0 0 -0 -0 -0 -0 -0 -0 -0 -0
0 0 0 0 0 0 0 0 0 0 0 0 0 0 0 0 0 0 0 0 0 0 0 0 0 0 0 0 0 0 0 0 0 0 0 0 -0 -0 0 0 -0 -0 -0 0
0 0 0 0 0 0 0 0 0 0 0 0 0 0 0 0 0 0 0 0 0 0 0 0 0 0 0 0 0 0 0 0 0 0 0 0 0 0 -0 0 0 0 0 0
0 0 0 0 0 0 0 0 0 0 0 0 0 0 0 0 0 0 0 0 0 0 0 0 0 0 0 0 0 0 0 0 0 0 0 0 0 0 0 0 0 0 0 0
0 0 0 -0 -0 0 0 0 0 0 0 0 0 0 0 0 0 0 0 0 0 0 0 0 0 0 0 0 0 0 0 0 0 0 0 0 0 0 0 0 0 0 0 0
0 0 0 0 0 0 0 0 0 0 0 0 0 0 0 0 0 0 0 0 0 0 0 0 0 0 0 0 0 0 0 0 0 0 0 0 0 0 0 0 0 0 0 0
0 0 0 0 0 0 0 0 0 0 0 0 0 0 0 0 0 0 0 0 0 0 0 0 0 0 0 0 0 0 0 0 0 0 0 0 0 0 0 0 0 0 0 0
0 0 0 0 0 0 0 0 0 0 0 0 0 0 0 0 0 0 0 0 0 0 0 0 0 0 0 0 0 0 0 0 0 0 0 0 0 0 0 0 0 0 0 0
0 0 0 0 0 0 0 0 0 0 0 0 0 0 0 0 0 0 0 0 0 0 0 0 0 0 0 0 0 0 0 0 0 0 0 0 0 0 0 0 0 0 0 0
0 0 0 0 0 0 0 0 0 0 0 0 0 0 0 0 0 0 0 0 0 0 0 0 0 0 0 0 0 0 0 0 0 0 0 0 0 0 0 0 0 0 0 0
0 0 0 0 0 0 0 0 0 0 0 0 0 0 0 0 0 0 0 0 0 0 0 0 0 0 0 0 0 0 0 0 0 0 0 0 0 0 0 0 0 -0 0 0
0 0 0 0 0 0 0 0 0 0 0 0 0 0 0 0 0 0 0 0 0 0 0 0 0 0 0 0 0 0 0 0 0 0 0 0 0 0 0 0 0 0 0 -0
Wind_Speed_500mb
3 3 3 4 7 9 4 6 8 16 19 23 26 25 15 13 15 15 15 12 6 10 13 10 17 22 23 27 35 44 52 55 55 56 53 48 46 44 37 37 43 47 46 39
4 1 5 9 6 3 10 12 8 14 12 24 20 14 13 8 10 13 17 10 7 3 7 16 20 19 25 33 43 48 49 46 44 43 43 42 39 38 38 41 43 46 42 38
2 9 10 7 7 9 6 11 7 14 9 18 15 20 17 11 8 12 5 5 3 6 15 19 19 24 33 41 38 41 43 37 37 39 41 43 41 44 48 49 44 43 37 29
4 7 4 7 3 1 4 11 9 5 4 9 10 10 10 8 8 7 4 3 9 13 20 18 20 30 31 33 34 37 40 36 38 42 45 45 47 50 53 49 38 39 33 24
4 2 4 5 5 2 5 7 8 4 2 5 3 7 1 4 4 4 4 8 11 20 18 14 24 23 32 33 33 36 35 39 42 44 51 49 44 50 48 44 35 35 33 29
4 2 4 6 6 3 2 5 5 1 2 6 9 11 10 6 8 8 11 12 14 21 16 14 18 25 32 34 32 31 37 46 47 44 54 50 42 48 45 41 35 30 28 24
4 3 2 3 14 2 6 7 3 2 3 8 6 8 12 6 10 16 15 14 18 19 17 16 20 27 33 35 33 36 44 47 44 47 52 41 40 47 46 38 30 26 21 30
4 4 5 10 1 3 5 5 3 2 2 3 5 7 9 13 18 21 18 17 20 20 19 20 26 33 37 36 33 43 45 48 42 46 42 35 40 43 40 32 25 23 29 26
2 5 2 3 5 5 9 3 2 4 4 8 3 5 9 13 17 20 21 20 21 20 23 22 26 34 44 41 39 46 50 40 39 38 32 31 38 39 36 27 26 35 35 28
7 3 3 1 2 5 6 4 2 4 7 6 5 5 10 20 24 23 23 20 22 26 28 30 27 34 43 45 42 46 49 36 34 27 31 32 32 29 35 32 30 38 33 25
6 4 4 3 7 6 4 5 6 6 7 5 8 9 16 22 27 28 27 25 26 30 33 34 33 37 41 37 39 44 44 35 24 23 27 28 29 32 38 30 34 25 25 29
5 5 3 7 11 5 4 4 3 7 7 8 13 20 25 31 32 34 34 32 33 36 38 34 36 40 32 31 36 42 40 26 22 21 24 25 27 28 22 22 22 15 26 35
9 7 3 3 8 9 10 12 17 15 19 24 29 32 36 38 34 35 39 38 34 35 35 34 36 37 27 28 33 36 36 34 23 21 22 22 23 26 24 10 16 10 22 33
13 10 2 10 11 15 18 22 28 33 34 37 41 43 43 41 34 30 31 32 29 32 32 33 32 31 28 27 31 35 33 32 30 21 20 19 20 20 20 14 8 10 16 22
17 16 13 15 21 20 21 24 28 32 37 42 49 55 46 41 34 25 31 31 30 33 34 31 34 33 26 26 33 35 31 27 27 26 21 21 22 20 19 18 16 15 15 14
11 12 17 25 29 33 32 29 38 31 37 44 46 52 46 33 33 29 31 28 30 32 32 34 35 30 25 29 33 37 35 30 28 26 23 21 21 22 20 17 16 16 15 14
9 15 22 26 25 27 28 20 28 32 38 39 38 40 27 26 31 34 33 20 33 40 39 44 42 33 32 34 35 40 42 37 34 32 27 23 22 22 22 22 19 17 15 14
9 12 19 22 19 17 17 20 26 23 26 34 32 35 32 35 43 40 37 34 35 40 29 42 36 33 35 38 40 42 44 46 42 38 35 31 26 25 23 22 23 22 19 18
11 21 27 25 29 22 27 27 24 26 26 28 33 33 33 32 34 36 33 35 45 50 50 49 40 43 44 44 45 48 46 45 48 46 44 42 38 34 28 25 24 24 24 22
20 27 29 25 28 29 32 29 31 34 32 34 35 32 27 25 30 27 29 35 41 48 46 43 41 39 36 35 39 47 53 51 50 50 50 51 49 44 34 32 28 29 27 27
30 36 38 37 38 39 39 39 44 46 43 41 39 36 34 31 32 33 35 38 40 41 40 41 41 42 43 42 40 39 37 42 42 50 54 51 54 57 53 42 36 34 34 34
36 42 46 46 48 50 52 53 51 50 47 41 35 30 27 27 37 51 44 40 40 37 33 30 28 32 37 38 35 42 49 47 47 41 42 44 47 54 54 51 48 46 43 42
45 46 50 54 57 57 57 49 42 39 35 29 20 21 24 49 50 45 31 39 35 36 36 37 35 34 34 35 37 42 41 35 31 25 29 27 31 35 37 42 50 52 52 42
53 55 55 52 47 39 36 31 26 23 19 21 33 50 59 39 28 36 40 43 44 43 43 43 42 44 45 39 28 26 26 29 37 42 48 49 32 20 31 34 50 50 47 53
41 35 29 26 24 20 17 16 16 24 33 37 43 48 51 53 56 57 50 41 37 33 32 34 30 23 17 26 26 29 29 29 27 37 41 38 35 42 51 45 39 30 22 25
21 21 21 23 24 26 30 36 41 43 44 45 42 44 52 53 43 38 32 36 39 36 35 28 27 31 29 24 27 27 28 30 31 31 33 33 29 33 31 32 34 43 40 48
22 25 28 26 27 34 37 44 41 43 49 49 45 40 40 40 38 42 43 42 41 41 40 38 34 35 30 29 31 30 32 35 37 33 38 38 34 30 29 29 32 35 37 38
Wind_Direction_500mb
23 272 197 71 21 43 73 46 355 350 340 7 353 353 28 84 90 95 89 94 96 285 280 311 321 314 315 318 319 316 316 319 319 319 320 322 324 326 320 309 313 313 314 305
153 98 348 108 50 99 80 31 19 347 34 4 10 37 55 81 130 146 150 123 342 257 305 318 314 316 321 323 321 325 328 327 330 332 336 332 328 331 325 316 315 316 315 307
280 349 133 151 47 57 87 55 350 14 358 338 19 28 29 42 91 112 107 88 44 324 321 318 321 325 328 327 333 340 343 337 335 334 334 337 332 329 326 322 313 316 319 306
297 313 223 67 174 341 60 64 49 76 31 35 47 46 53 79 120 129 136 350 336 333 330 323 327 331 339 341 340 343 346 338 335 334 332 328 328 330 329 327 320 319 320 315
269 300 16 112 40 4 12 77 24 70 125 124 138 298 341 157 178 226 283 315 330 337 326 326 336 346 347 339 336 338 336 340 340 339 338 330 328 332 334 333 329 325 327 329
151 254 268 56 3 294 231 143 36 86 190 209 306 339 20 249 253 278 299 308 321 325 311 322 335 339 341 343 342 333 338 337 337 333 335 330 335 338 334 329 325 325 336 334
152 218 135 4 321 177 285 25 84 177 201 221 310 323 317 290 284 290 291 297 317 321 306 312 325 322 326 334 338 330 336 329 333 333 335 335 338 338 334 331 326 330 337 337
113 220 202 357 212 350 84 155 188 204 228 258 296 1 5 335 311 305 295 300 318 323 316 306 310 314 320 325 331 331 328 327 329 335 333 334 341 335 336 333 333 337 353 352
291 50 4 343 75 138 174 176 223 231 312 308 358 348 348 340 335 330 312 305 312 316 314 316 310 315 311 322 319 321 327 330 337 343 347 352 342 344 352 348 352 349 358 356
182 120 332 53 273 248 225 221 137 67 7 297 267 301 346 344 332 327 335 315 304 303 308 317 313 312 318 323 319 318 325 330 337 349 345 354 353 353 354 355 352 345 346 360
108 47 106 44 319 299 248 178 127 37 9 241 262 289 299 310 320 315 310 316 305 305 308 311 310 310 319 320 315 320 329 332 328 336 337 345 349 340 339 343 346 359 7 358
110 141 82 357 0 6 252 245 341 321 293 278 274 299 294 298 305 315 307 300 303 309 307 302 302 310 315 314 317 326 329 327 322 318 326 339 342 343 349 333 353 27 16 9
134 157 191 303 320 291 269 278 254 277 288 287 289 289 291 294 297 305 310 304 305 308 306 301 304 309 311 311 318 326 328 329 321 316 323 326 335 343 346 13 16 10 13 14
208 203 257 259 290 296 294 286 281 275 280 282 288 291 298 298 290 305 317 314 302 303 306 312 309 306 304 304 307 318 327 329 327 310 310 321 328 333 336 330 336 343 352 5
231 236 262 279 287 276 270 269 270 280 289 291 289 291 297 304 287 303 315 311 298 301 303 301 307 312 304 287 297 309 311 321 322 322 304 303 313 317 321 321 312 308 321 338
264 271 284 285 284 287 282 272 279 295 310 303 301 300 309 294 296 292 306 306 298 305 306 297 302 308 285 288 294 301 305 301 306 312 317 296 297 303 301 307 311 312 318 314
341 347 345 332 319 322 318 295 305 303 301 311 322 314 297 285 295 295 295 301 297 291 294 296 301 298 282 278 282 292 297 295 293 294 297 310 292 288 289 286 289 293 297 300
16 3 350 343 355 0 344 325 312 310 319 319 315 314 310 297 303 281 289 274 295 288 298 300 299 291 282 282 282 283 287 292 285 284 283 283 297 299 283 274 274 277 281 282
351 336 329 313 311 307 315 315 310 308 302 306 319 320 314 311 307 301 297 277 284 294 298 300 290 286 281 276 273 276 281 285 286 280 276 277 280 284 288 274 265 263 264 270
316 323 324 320 317 312 302 296 301 300 294 297 307 308 306 305 300 306 302 296 298 299 296 294 283 277 278 284 284 279 280 280 288 283 279 272 270 271 267 277 274 266 262 261
308 311 315 307 300 301 300 295 293 290 281 280 285 291 293 300 310 307 303 305 306 308 307 297 290 286 289 290 287 283 286 278 280 285 280 281 273 262 262 265 267 272 273 264
301 304 308 307 304 299 302 296 284 283 271 271 278 290 300 312 317 304 301 301 303 307 310 308 306 305 306 306 301 292 298 291 285 286 283 280 274 266 265 262 265 265 266 272
298 304 304 302 306 306 300 300 289 277 269 269 275 295 314 321 312 292 297 302 305 308 309 308 306 305 304 303 306 305 300 302 296 319 313 307 291 281 268 268 266 268 262 262
302 300 303 309 311 312 312 306 285 272 274 291 298 305 309 296 297 302 299 298 296 294 291 289 288 292 296 300 314 327 329 321 299 294 288 290 308 330 335 300 274 271 273 264
323 327 332 334 336 342 336 330 314 310 319 326 327 316 310 310 311 307 301 300 299 296 288 286 286 283 279 307 321 327 329 332 323 314 309 316 308 295 285 298 300 312 314 310
339 340 342 340 336 329 323 318 315 314 315 314 308 304 304 306 299 295 292 295 295 288 286 269 272 277 283 295 304 309 310 312 314 310 298 304 297 297 309 306 299 305 298 285
350 341 341 339 336 333 329 326 323 317 314 310 303 302 300 298 293 292 292 291 285 275 269 267 269 272 273 279 294 300 305 305 302 299 284 287 290 292 292 291 303 311 311 314
Wind_Speed_850mb
3 3 3 4 7 9 4 6 8 16 19 23 26 25 15 13 15 15 15 12 6 10 13 10 17 22 23 27 35 44 52 55 55 56 53 48 46 44 37 37 43 47 46 39
4 1 5 9 6 3 10 12 8 14 12 24 20 14 13 8 10 13 17 10 7 3 7 16 20 19 25 33 43 48 49 46 44 43 43 42 39 38 38 41 43 46 42 38
2 9 10 7 7 9 6 11 7 14 9 18 15 20 17 11 8 12 5 5 3 6 15 19 19 24 33 41 38 41 43 37 37 39 41 43 41 44 48 49 44 43 37 29
4 7 4 7 3 1 4 11 9 5 4 9 10 10 10 8 8 7 4 3 9 13 20 18 20 30 31 33 34 37 40 36 38 42 45 45 47 50 53 49 38 39 33 24
4 2 4 5 5 2 5 7 8 4 2 5 3 7 1 4 4 4 4 8 11 20 18 14 24 23 32 33 33 36 35 39 42 44 51 49 44 50 48 44 35 35 33 29
4 2 4 6 6 3 2 5 5 1 2 6 9 11 10 6 8 8 11 12 14 21 16 14 18 25 32 34 32 31 37 46 47 44 54 50 42 48 45 41 35 30 28 24
4 3 2 3 14 2 6 7 3 2 3 8 6 8 12 6 10 16 15 14 18 19 17 16 20 27 33 35 33 36 44 47 44 47 52 41 40 47 46 38 30 26 21 30
4 4 5 10 1 3 5 5 3 2 2 3 5 7 9 13 18 21 18 17 20 20 19 20 26 33 37 36 33 43 45 48 42 46 42 35 40 43 40 32 25 23 29 26
2 5 2 3 5 5 9 3 2 4 4 8 3 5 9 13 17 20 21 20 21 20 23 22 26 34 44 41 39 46 50 40 39 38 32 31 38 39 36 27 26 35 35 28
7 3 3 1 2 5 6 4 2 4 7 6 5 5 10 20 24 23 23 20 22 26 28 30 27 34 43 45 42 46 49 36 34 27 31 32 32 29 35 32 30 38 33 25
6 4 4 3 7 6 4 5 6 6 7 5 8 9 16 22 27 28 27 25 26 30 33 34 33 37 41 37 39 44 44 35 24 23 27 28 29 32 38 30 34 25 25 29
5 5 3 7 11 5 4 4 3 7 7 8 13 20 25 31 32 34 34 32 33 36 38 34 36 40 32 31 36 42 40 26 22 21 24 25 27 28 22 22 22 15 26 35
9 7 3 3 8 9 10 12 17 15 19 24 29 32 36 38 34 35 39 38 34 35 35 34 36 37 27 28 33 36 36 34 23 21 22 22 23 26 24 10 16 10 22 33
13 10 2 10 11 15 18 22 28 33 34 37 41 43 43 41 34 30 31 32 29 32 32 33 32 31 28 27 31 35 33 32 30 21 20 19 20 20 20 14 8 10 16 22
17 16 13 15 21 20 21 24 28 32 37 42 49 55 46 41 34 25 31 31 30 33 34 31 34 33 26 26 33 35 31 27 27 26 21 21 22 20 19 18 16 15 15 14
11 12 17 25 29 33 32 29 38 31 37 44 46 52 46 33 33 29 31 28 30 32 32 34 35 30 25 29 33 37 35 30 28 26 23 21 21 22 20 17 16 16 15 14
9 15 22 26 25 27 28 20 28 32 38 39 38 40 27 26 31 34 33 20 33 40 39 44 42 33 32 34 35 40 42 37 34 32 27 23 22 22 22 22 19 17 15 14
9 12 19 22 19 17 17 20 26 23 26 34 32 35 32 35 43 40 37 34 35 40 29 42 36 33 35 38 40 42 44 46 42 38 35 31 26 25 23 22 23 22 19 18
11 21 27 25 29 22 27 27 24 26 26 28 33 33 33 32 34 36 33 35 45 50 50 49 40 43 44 44 45 48 46 45 48 46 44 42 38 34 28 25 24 24 24 22
20 27 29 25 28 29 32 29 31 34 32 34 35 32 27 25 30 27 29 35 41 48 46 43 41 39 36 35 39 47 53 51 50 50 50 51 49 44 34 32 28 29 27 27
30 36 38 37 38 39 39 39 44 46 43 41 39 36 34 31 32 33 35 38 40 41 40 41 41 42 43 42 40 39 37 42 42 50 54 51 54 57 53 42 36 34 34 34
36 42 46 46 48 50 52 53 51 50 47 41 35 30 27 27 37 51 44 40 40 37 33 30 28 32 37 38 35 42 49 47 47 41 42 44 47 54 54 51 48 46 43 42
45 46 50 54 57 57 57 49 42 39 35 29 20 21 24 49 50 45 31 39 35 36 36 37 35 34 34 35 37 42 41 35 31 25 29 27 31 35 37 42 50 52 52 42
53 55 55 52 47 39 36 31 26 23 19 21 33 50 59 39 28 36 40 43 44 43 43 43 42 44 45 39 28 26 26 29 37 42 48 49 32 20 31 34 50 50 47 53
41 35 29 26 24 20 17 16 16 24 33 37 43 48 51 53 56 57 50 41 37 33 32 34 30 23 17 26 26 29 29 29 27 37 41 38 35 42 51 45 39 30 22 25
21 21 21 23 24 26 30 36 41 43 44 45 42 44 52 53 43 38 32 36 39 36 35 28 27 31 29 24 27 27 28 30 31 31 33 33 29 33 31 32 34 43 40 48
22 25 28 26 27 34 37 44 41 43 49 49 45 40 40 40 38 42 43 42 41 41 40 38 34 35 30 29 31 30 32 35 37 33 38 38 34 30 29 29 32 35 37 38
Wind_Direction_850mb
23 272 197 71 21 43 73 46 355 350 340 7 353 353 28 84 90 95 89 94 96 285 280 311 321 314 315 318 319 316 316 319 319 319 320 322 324 326 320 309 313 313 314 305
153 98 348 108 50 99 80 31 19 347 34 4 10 37 55 81 130 146 150 123 342 257 305 318 314 316 321 323 321 325 328 327 330 332 336 332 328 331 325 316 315 316 315 307
280 349 133 151 47 57 87 55 350 14 358 338 19 28 29 42 91 112 107 88 44 324 321 318 321 325 328 327 333 340 343 337 335 334 334 337 332 329 326 322 313 316 319 306
297 313 223 67 174 341 60 64 49 76 31 35 47 46 53 79 120 129 136 350 336 333 330 323 327 331 339 341 340 343 346 338 335 334 332 328 328 330 329 327 320 319 320 315
269 300 16 112 40 4 12 77 24 70 125 124 138 298 341 157 178 226 283 315 330 337 326 326 336 346 347 339 336 338 336 340 340 339 338 330 328 332 334 333 329 325 327 329
151 254 268 56 3 294 231 143 36 86 190 209 306 339 20 249 253 278 299 308 321 325 311 322 335 339 341 343 342 333 338 337 337 333 335 330 335 338 334 329 325 325 336 334
152 218 135 4 321 177 285 25 84 177 201 221 310 323 317 290 284 290 291 297 317 321 306 312 325 322 326 334 338 330 336 329 333 333 335 335 338 338 334 331 326 330 337 337
113 220 202 357 212 350 84 155 188 204 228 258 296 1 5 335 311 305 295 300 318 323 316 306 310 314 320 325 331 331 328 327 329 335 333 334 341 335 336 333 333 337 353 352
291 50 4 343 75 138 174 176 223 231 312 308 358 348 348 340 335 330 312 305 312 316 314 316 310 315 311 322 319 321 327 330 337 343 347 352 342 344 352 348 352 349 358 356
182 120 332 53 273 248 225 221 137 67 7 297 267 301 346 344 332 327 335 315 304 303 308 317 313 312 318 323 319 318 325 330 337 349 345 354 353 353 354 355 352 345 346 360
108 47 106 44 319 299 248 178 127 37 9 241 262 289 299 310 320 315 310 316 305 305 308 311 310 310 319 320 315 320 329 332 328 336 337 345 349 340 339 343 346 359 7 358
110 141 82 357 0 6 252 245 341 321 293 278 274 299 294 298 305 315 307 300 303 309 307 302 302 310 315 314 317 326 329 327 322 318 326 339 342 343 349 333 353 27 16 9
134 157 191 303 320 291 269 278 254 277 288 287 289 289 291 294 297 305 310 304 305 308 306 301 304 309 311 311 318 326 328 329 321 316 323 326 335 343 346 13 16 10 13 14
208 203 257 259 290 296 294 286 281 275 280 282 288 291 298 298 290 305 317 314 302 303 306 312 309 306 304 304 307 318 327 329 327 310 310 321 328 333 336 330 336 343 352 5
231 236 262 279 287 276 270 269 270 280 289 291 289 291 297 304 287 303 315 311 298 301 303 301 307 312 304 287 297 309 311 321 322 322 304 303 313 317 321 321 312 308 321 338
264 271 284 285 284 287 282 272 279 295 310 303 301 300 309 294 296 292 306 306 298 305 306 297 302 308 285 288 294 301 305 301 306 312 317 296 297 303 301 307 311 312 318 314
341 347 345 332 319 322 318 295 305 303 301 311 322 314 297 285 295 295 295 301 297 291 294 296 301 298 282 278 282 292 297 295 293 294 297 310 292 288 289 286 289 293 297 300
16 3 350 343 355 0 344 325 312 310 319 319 315 314 310 297 303 281 289 274 295 288 298 300 299 291 282 282 282 283 287 292 285 284 283 283 297 299 283 274 274 277 281 282
351 336 329 313 311 307 315 315 310 308 302 306 319 320 314 311 307 301 297 277 284 294 298 300 290 286 281 276 273 276 281 285 286 280 276 277 280 284 288 274 265 263 264 270
316 323 324 320 317 312 302 296 301 300 294 297 307 308 306 305 300 306 302 296 298 299 296 294 283 277 278 284 284 279 280 280 288 283 279 272 270 271 267 277 274 266 262 261
308 311 315 307 300 301 300 295 293 290 281 280 285 291 293 300 310 307 303 305 306 308 307 297 290 286 289 290 287 283 286 278 280 285 280 281 273 262 262 265 267 272 273 264
301 304 308 307 304 299 302 296 284 283 271 271 278 290 300 312 317 304 301 301 303 307 310 308 306 305 306 306 301 292 298 291 285 286 283 280 274 266 265 262 265 265 266 272
298 304 304 302 306 306 300 300 289 277 269 269 275 295 314 321 312 292 297 302 305 308 309 308 306 305 304 303 306 305 300 302 296 319 313 307 291 281 268 268 266 268 262 262
302 300 303 309 311 312 312 306 285 272 274 291 298 305 309 296 297 302 299 298 296 294 291 289 288 292 296 300 314 327 329 321 299 294 288 290 308 330 335 300 274 271 273 264
323 327 332 334 336 342 336 330 314 310 319 326 327 316 310 310 311 307 301 300 299 296 288 286 286 283 279 307 321 327 329 332 323 314 309 316 308 295 285 298 300 312 314 310
339 340 342 340 336 329 323 318 315 314 315 314 308 304 304 306 299 295 292 295 295 288 286 269 272 277 283 295 304 309 310 312 314 310 298 304 297 297 309 306 299 305 298 285
350 341 341 339 336 333 329 326 323 317 314 310 303 302 300 298 293 292 292 291 285 275 269 267 269 272 273 279 294 300 305 305 302 299 284 287 290 292 292 291 303 311 311 314